Location: Unspecified
(50.1700°N, 6.8600°E)
Time: 04:20:49
(UTC+00:00)

CORIOLIS - Pass Details

Date: 24 January 2019
Orbit: 819 x 839 km, 98.7° (Epoch: 20 February)

Event Time Altitude Azimuth Distance (km) Brightness Sun altitude
Rises 06:38:18 0° 12° (NNE) 3,366 7.2 -6.5°
Reaches altitude 10° 06:40:39 10° 10° (N) 2,431 6.5 -6.1°
Maximum altitude 06:45:59 66° 290° (WNW) 903 4.2 -5.3°
Drops below altitude 10° 06:51:18 10° 209° (SSW) 2,426 6.6 -4.6°
Sets 06:53:39 0° 207° (SSW) 3,358 7.3 -4.2°
